Weather History for Guernsey, United Kingdom

Change the Weather History Date:

Friday, March 22, 2013

  Actual Average Record
Temperature  
Mean Temperature 48 °F -  
Max Temperature 50 °F 51 °F 57 °F (2012)
Min Temperature 45 °F 43 °F 37 °F (2006)
Degree Days  
Heating Degree Days 18    
Moisture  
Dew Point 45 °F    
Average Humidity 87    
Maximum Humidity 100    
Minimum Humidity 72    
Precipitation  
Precipitation 0.02 in - - ()
Sea Level Pressure  
Sea Level Pressure 29.56 in    
Wind  
Wind Speed 13 mph ()    
Max Wind Speed 20 mph    
Max Gust Speed -    
Visibility 7.3 miles    
Events Fog , Rain    
Averages and records for this station are not official NWS values.
T = Trace of Precipitation, MM = Missing Value Source: Averaged Metar Reports

Daily Weather History Graph

Daily Weather History Graph

Search for Another Location

Airport:

Trip Planner

Search our weather history database for the weather conditions in past years. The results will help you decide how hot, cold, wet, or windy it might be!

Date:

Astronomy

Mar. 22, 2013 Rise Set
Actual Time 6:08 AM GMT 6:26 PM GMT
Civil Twilight 5:36 AM GMT 6:58 PM GMT
Nautical Twilight 4:59 AM GMT 7:36 PM GMT
Astronomical Twilight 4:20 AM GMT 8:15 PM GMT
Moon 1:16 PM GMT (3/22) 3:24 AM GMT (3/22)
Length of Visible Light 13h 21m
Length of Day
12h 17m
Waxing Gibbous, 75% of the Moon is Illuminated
Mar 22
Waxing Gibbous
Mar 27
Full
Apr 3
Last Quarter
Apr 10
New
Apr 18
First Quarter

Hourly Weather History & Observations

Time (GMT) Temp. Windchill Dew Point Humidity Pressure Visibility Wind Dir Wind Speed Gust Speed Precip Events Conditions
12:00 AM 45 °F - 45 °F 98% 29.74 in 12 mi SE 15.0 mph - - Rain Light Rain
3:00 AM 45 °F - 44 °F 96% 29.68 in 19 mi ESE 17.3 mph - -   Scattered Clouds
3:50 AM 46.4 °F 39.8 °F 44.6 °F 93% 29.62 in 6.2 mi ESE 16.1 mph - N/A   Partly Cloudy
4:20 AM 46.4 °F 40.1 °F 44.6 °F 93% 29.62 in - ESE 15.0 mph - N/A   Clear
4:50 AM 46.4 °F 39.8 °F 42.8 °F 87% 29.59 in - ESE 16.1 mph - N/A   Clear
5:20 AM 46.4 °F 39.5 °F 42.8 °F 87% 29.59 in 6.2 mi ESE 17.3 mph - N/A   Partly Cloudy
5:50 AM 48.2 °F - 42.8 °F 82% 29.56 in - ESE 18.4 mph - N/A   Clear
6:00 AM 47 °F - 43 °F 79% 29.60 in 28 mi ESE 18.4 mph - -   Scattered Clouds
6:20 AM 48.2 °F - 42.8 °F 82% 29.56 in - ESE 18.4 mph - N/A   Clear
6:50 AM 48.2 °F - 42.8 °F 82% 29.56 in - ESE 16.1 mph - N/A   Clear
7:20 AM 46.4 °F 40.1 °F 42.8 °F 87% 29.56 in - ESE 15.0 mph - N/A   Clear
7:50 AM 46.4 °F 40.1 °F 42.8 °F 87% 29.56 in - ESE 15.0 mph - N/A   Clear
8:20 AM 48.2 °F - 42.8 °F 82% 29.53 in - ESE 16.1 mph - N/A   Clear
8:50 AM 48.2 °F - 42.8 °F 82% 29.53 in - ESE 17.3 mph - N/A   Clear
9:00 AM 48 °F - 43 °F 76% 29.56 in 28 mi ESE 17.3 mph - -   Partly Cloudy
9:20 AM 48.2 °F - 42.8 °F 82% 29.53 in - ESE 19.6 mph - N/A   Clear
9:50 AM 48.2 °F - 42.8 °F 82% 29.53 in - ESE 17.3 mph - N/A   Clear
10:20 AM 48.2 °F - 42.8 °F 82% 29.53 in - ESE 15.0 mph - N/A   Clear
10:50 AM 50.0 °F - 42.8 °F 76% 29.53 in 6.2 mi ESE 15.0 mph - N/A Rain Light Rain
11:20 AM 48.2 °F - 44.6 °F 87% 29.53 in 6.2 mi SE 9.2 mph - N/A   Unknown
11:50 AM 48.2 °F - 42.8 °F 82% 29.53 in 6.2 mi SE 9.2 mph - N/A   Unknown
12:00 PM 49 °F - 43 °F 72% 29.56 in 19 mi SE 9.2 mph - - Rain Light Rain
12:20 PM 48.2 °F - 44.6 °F 87% 29.53 in 6.2 mi ESE 12.7 mph - N/A Rain Light Rain
12:50 PM 48.2 °F - 44.6 °F 87% 29.53 in 6.2 mi SE 12.7 mph - N/A Rain Light Rain
1:20 PM 48.2 °F - 44.6 °F 87% 29.53 in 6.2 mi SE 11.5 mph - N/A Rain Light Rain
1:50 PM 48.2 °F - 44.6 °F 87% 29.53 in 6.2 mi SE 10.4 mph - N/A Rain Light Rain
2:20 PM 48.2 °F - 44.6 °F 87% 29.53 in 6.2 mi SE 10.4 mph - N/A Rain Light Rain
2:50 PM 48.2 °F - 44.6 °F 87% 29.53 in 6.2 mi SE 9.2 mph - N/A Rain Light Rain
3:00 PM 48 °F - 45 °F 87% 29.55 in 16 mi SE 9.2 mph - - Rain Light Rain
3:20 PM 50.0 °F - 46.4 °F 87% 29.53 in 6.2 mi SE 11.5 mph - N/A Rain Light Rain
3:50 PM 50.0 °F - 46.4 °F 87% 29.53 in 6.2 mi SE 9.2 mph - N/A Rain Light Rain
4:20 PM 50.0 °F - 46.4 °F 87% 29.53 in 6.2 mi SE 11.5 mph - N/A   Unknown
4:50 PM 50.0 °F - 46.4 °F 87% 29.53 in 6.2 mi SE 10.4 mph - N/A Rain Light Rain
5:20 PM 50.0 °F - 46.4 °F 87% 29.53 in 6.2 mi ESE 10.4 mph - N/A   Partly Cloudy
5:50 PM 50.0 °F - 46.4 °F 87% 29.53 in 6.2 mi SE 12.7 mph - N/A Rain Light Rain
6:00 PM 50 °F - 47 °F 84% 29.55 in 9 mi SE 12.7 mph - - Rain Light Rain
6:20 PM 50.0 °F - 46.4 °F 87% 29.53 in 6.2 mi SE 10.4 mph - N/A Rain Light Rain
6:50 PM 50.0 °F - 46.4 °F 87% 29.56 in 6.2 mi ESE 11.5 mph - N/A Rain Light Rain
7:20 PM 48.2 °F - 46.4 °F 93% 29.56 in 2.2 mi SSW 6.9 mph - N/A Rain Heavy Rain
7:50 PM 48.2 °F - 46.4 °F 93% 29.56 in 3.7 mi SSE 4.6 mph - N/A Rain Rain
8:20 PM 46.4 °F 45.2 °F 46.4 °F 100% 29.56 in 6.2 mi SE 3.5 mph - N/A Fog , Rain Light Rain
8:50 PM 46.4 °F 43.5 °F 46.4 °F 100% 29.56 in 6.2 mi SE 5.8 mph - N/A Fog , Rain Light Rain
9:00 PM 47 °F - 47 °F 100% 29.59 in 2 mi SE 5.8 mph - - Rain Light Rain
9:20 PM 46.4 °F 43.5 °F 46.4 °F 100% 29.56 in 6.2 mi ESE 5.8 mph - N/A   Scattered Clouds